| time (UTC) | temp F | wind direction | speed MPH | gust MPH | rain 1hr in | rain 24hr in | rain mn in | humidity % | barometer mb |
| 20260903133603 | 70 | 251 | 1.0 | 2.0 | 0.00 | 0.12 | 0.12 | 99 | 1009.5 |
| 20260903132403 | 70 | 353 | 0.0 | 0.0 | 0.00 | 0.12 | 0.12 | 99 | 1009.3 |
| 20260903131202 | 70 | 22 | 1.0 | 2.0 | 0.00 | 0.12 | 0.12 | 99 | 1009.9 |
| 20260903130001 | 70 | 124 | 2.0 | 3.0 | 0.00 | 0.12 | 0.12 | 99 | 1010.2 |
| 20260903124803 | 70 | 108 | 2.0 | 3.0 | 0.00 | 0.12 | 0.12 | 99 | 1010.7 |
| 20260903123604 | 70 | 349 | 5.0 | 7.0 | 0.00 | 0.12 | 0.12 | 99 | 1010.0 |
| 20260903122403 | 70 | 330 | 5.0 | 6.0 | 0.00 | 0.12 | 0.12 | 99 | 1010.5 |
| 20260903121202 | 70 | 175 | 5.0 | 6.0 | 0.00 | 0.12 | 0.12 | 99 | 1010.4 |
| 20260903120003 | 70 | 228 | 2.0 | 3.0 | 0.00 | 0.12 | 0.12 | 99 | 1010.5 |
| 20260903114801 | 70 | 114 | 0.0 | 1.0 | 0.00 | 0.12 | 0.12 | 99 | 1010.7 |
| 20260903113601 | 70 | 40 | 0.0 | 0.0 | 0.00 | 0.12 | 0.12 | 99 | 1011.0 |
| 20260903112403 | 70 | 305 | 2.0 | 3.0 | 0.00 | 0.12 | 0.12 | 99 | 1011.3 |
| 20260903111202 | 70 | 99 | 2.0 | 5.0 | 0.00 | 0.12 | 0.12 | 99 | 1011.4 |
| 20260903110002 | 70 | 65 | 3.0 | 3.0 | 0.01 | 0.12 | 0.12 | 99 | 1011.3 |
| 20260903104803 | 70 | 294 | 2.0 | 2.0 | 0.01 | 0.12 | 0.12 | 99 | 1010.9 |
| 20260903103604 | 70 | 181 | 0.0 | 0.0 | 0.01 | 0.12 | 0.12 | 99 | 1011.1 |
| 20260903102402 | 70 | 206 | 3.0 | 5.0 | 0.01 | 0.12 | 0.12 | 99 | 1011.1 |
| 20260903101202 | 70 | 300 | 1.0 | 2.0 | 0.01 | 0.12 | 0.12 | 99 | 1011.0 |
| 20260903100002 | 70 | 204 | 2.0 | 2.0 | 0.00 | 0.11 | 0.11 | 99 | 1010.4 |
| 20260903094801 | 70 | 277 | 2.0 | 3.0 | 0.00 | 0.11 | 0.11 | 99 | 1010.6 |
| 20260903093603 | 70 | 276 | 0.0 | 1.0 | 0.00 | 0.11 | 0.11 | 99 | 1010.7 |
| 20260903092403 | 70 | 298 | 3.0 | 5.0 | 0.00 | 0.11 | 0.11 | 99 | 1010.5 |
| 20260903091202 | 70 | 282 | 0.0 | 1.0 | 0.00 | 0.11 | 0.11 | 99 | 1010.7 |
| 20260903090003 | 70 | 185 | 2.0 | 3.0 | 0.00 | 0.11 | 0.11 | 99 | 1010.6 |
| 20260903084803 | 71 | 181 | 0.0 | 0.0 | 0.00 | 0.11 | 0.11 | 99 | 1011.1 |
| 20260903083602 | 70 | 180 | 2.0 | 2.0 | 0.00 | 0.11 | 0.11 | 99 | 1011.6 |
| 20260903082403 | 70 | 191 | 3.0 | 5.0 | 0.00 | 0.11 | 0.11 | 99 | 1011.6 |
| 20260903081203 | 71 | 28 | 2.0 | 3.0 | 0.02 | 0.11 | 0.11 | 99 | 1011.8 |
| 20260903080002 | 71 | 240 | 2.0 | 2.0 | 0.07 | 0.11 | 0.11 | 99 | 1012.3 |
| 20260903074802 | 71 | 241 | 3.0 | 5.0 | 0.08 | 0.11 | 0.11 | 99 | 1012.1 |
| 20260903073602 | 70 | 317 | 1.0 | 2.0 | 0.08 | 0.11 | 0.11 | 99 | 1011.8 |
| 20260903072402 | 71 | 346 | 2.0 | 5.0 | 0.07 | 0.10 | 0.10 | 99 | 1012.4 |
| 20260903071201 | 71 | 265 | 0.0 | 0.0 | 0.06 | 0.09 | 0.09 | 99 | 1012.7 |
| 20260903070001 | 71 | 131 | 2.0 | 5.0 | 0.01 | 0.04 | 0.04 | 99 | 1012.8 |
| 20260903064803 | 72 | 13 | 2.0 | 6.0 | 0.00 | 0.03 | 0.03 | 99 | 1012.6 |
| 20260903063603 | 71 | 140 | 0.0 | 0.0 | 0.00 | 0.03 | 0.03 | 99 | 1012.4 |
| 20260903062401 | 71 | 131 | 0.0 | 1.0 | 0.01 | 0.03 | 0.03 | 97 | 1012.9 |
| 20260903061202 | 72 | 102 | 5.0 | 8.0 | 0.01 | 0.03 | 0.03 | 97 | 1012.6 |
| 20260903060001 | 73 | 17 | 2.0 | 5.0 | 0.01 | 0.03 | 0.03 | 95 | 1012.8 |
| 20260903054802 | 73 | 48 | 5.0 | 7.0 | 0.01 | 0.03 | 0.03 | 98 | 1012.6 |
| 20260903053603 | 74 | 96 | 0.0 | 0.0 | 0.02 | 0.03 | 0.03 | 94 | 1012.5 |
| 20260903052403 | 75 | 119 | 3.0 | 3.0 | 0.01 | 0.02 | 0.02 | 95 | 1011.9 |
| 20260903051202 | 74 | 129 | 2.0 | 3.0 | 0.01 | 0.02 | 0.02 | 94 | 1012.3 |
| 20260903050004 | 75 | 121 | 2.0 | 5.0 | 0.01 | 0.02 | 0.02 | 86 | 1012.3 |
| 20260903044803 | 75 | 113 | 6.0 | 9.0 | 0.01 | 0.02 | 0.02 | 92 | 1011.7 |
| 20260903043601 | 76 | 109 | 2.0 | 3.0 | 0.01 | 0.01 | 0.01 | 99 | 1011.1 |
| 20260903042403 | 76 | 141 | 1.0 | 2.0 | 0.01 | 0.01 | 0.01 | 99 | 1010.9 |
| 20260903041201 | 77 | 153 | 1.0 | 2.0 | 0.01 | 0.01 | 0.01 | 99 | 1010.9 |
| 20260903040001 | 77 | 89 | 1.0 | 2.0 | 0.01 | 0.01 | 0.01 | 99 | 1011.1 |
| 20260903034803 | 77 | 111 | 1.0 | 2.0 | 0.01 | 0.01 | 0.01 | 99 | 1011.1 |
| 20260903033603 | 79 | 101 | 2.0 | 3.0 | 0.00 | 0.00 | 0.00 | 97 | 1011.4 |
| 20260903032403 | 80 | 46 | 0.0 | 1.0 | 0.00 | 0.00 | 0.00 | 93 | 1011.0 |
| 20260903031202 | 80 | 46 | 0.0 | 0.0 | 0.00 | 0.00 | 0.00 | 92 | 1011.1 |
| 20260903030002 | 79 | 46 | 0.0 | 1.0 | 0.00 | 0.00 | 0.00 | 93 | 1011.1 |
| 20260903024802 | 80 | 64 | 1.0 | 2.0 | 0.00 | 0.00 | 0.00 | 92 | 1010.9 |
| 20260903023603 | 80 | 100 | 0.0 | 3.0 | 0.00 | 0.00 | 0.00 | 93 | 1010.6 |
| 20260903022402 | 80 | 33 | 2.0 | 5.0 | 0.00 | 0.00 | 0.00 | 90 | 1010.6 |
| 20260903021202 | 80 | 35 | 3.0 | 5.0 | 0.00 | 0.00 | 0.00 | 91 | 1010.7 |
| 20260903020001 | 80 | 44 | 0.0 | 3.0 | 0.00 | 0.00 | 0.00 | 91 | 1010.7 |
| 20260903014803 | 80 | 26 | 1.0 | 1.0 | 0.00 | 0.00 | 0.00 | 91 | 1011.2 |
| 20260903013602 | 80 | 11 | 1.0 | 2.0 | 0.00 | 0.00 | 0.00 | 91 | 1010.9 |
| 20260903012402 | 79 | 27 | 1.0 | 2.0 | 0.00 | 0.00 | 0.00 | 92 | 1011.0 |
| 20260903011202 | 79 | 46 | 1.0 | 2.0 | 0.00 | 0.00 | 0.00 | 93 | 1011.1 |
| 20260903010002 | 78 | 337 | 2.0 | 3.0 | 0.00 | 0.00 | 0.00 | 95 | 1011.3 |
| 20260903004802 | 78 | 284 | 1.0 | 2.0 | 0.00 | 0.00 | 0.00 | 95 | 1011.5 |
| 20260903003602 | 77 | 342 | 0.0 | 0.0 | 0.00 | 0.00 | 0.00 | 97 | 1011.2 |
| 20260903002404 | 78 | 88 | 1.0 | 3.0 | 0.00 | 0.00 | 0.00 | 97 | 1010.7 |
| 20260903001203 | 77 | 351 | 0.0 | 0.0 | 0.00 | 0.00 | 0.00 | 97 | 1011.2 |
| 20260903000004 | 77 | 14 | 0.0 | 0.0 | 0.00 | 0.00 | 0.00 | 97 | 1011.3 |
| 20260902234805 | 76 | 77 | 0.0 | 1.0 | 0.00 | 0.00 | 0.00 | 98 | 1011.3 |
| 20260902233603 | 76 | 40 | 0.0 | 1.0 | 0.00 | 0.00 | 0.00 | 98 | 1011.5 |
| 20260902232403 | 76 | 38 | 1.0 | 2.0 | 0.00 | 0.00 | 0.00 | 99 | 1011.4 |
| 20260902231203 | 76 | 22 | 0.0 | 0.0 | 0.00 | 0.00 | 0.00 | 99 | 1011.3 |
| 20260902230004 | 76 | 32 | 1.0 | 1.0 | 0.00 | 0.00 | 0.00 | 99 | 1011.4 |
| 20260902224804 | 75 | 17 | 0.0 | 0.0 | 0.00 | 0.00 | 0.00 | 99 | 1011.3 |
| 20260902223604 | 74 | 7 | 0.0 | 0.0 | 0.00 | 0.00 | 0.00 | 99 | 1011.0 |
| 20260902222403 | 74 | 330 | 1.0 | 2.0 | 0.00 | 0.00 | 0.00 | 99 | 1011.0 |
| 20260902221204 | 74 | 246 | 1.0 | 2.0 | 0.00 | 0.00 | 0.00 | 99 | 1010.9 |
| 20260902220004 | 74 | 299 | 1.0 | 2.0 | 0.00 | 0.00 | 0.00 | 99 | 1010.9 |
| 20260902214803 | 74 | 304 | 0.0 | 0.0 | 0.00 | 0.00 | 0.00 | 99 | 1010.8 |
| 20260902213604 | 73 | 294 | 0.0 | 0.0 | 0.00 | 0.00 | 0.00 | 99 | 1010.8 |
| 20260902212403 | 73 | 266 | 0.0 | 0.0 | 0.00 | 0.00 | 0.00 | 99 | 1011.1 |
| 20260902211203 | 73 | 271 | 0.0 | 0.0 | 0.00 | 0.00 | 0.00 | 99 | 1011.1 |
| 20260902210004 | 73 | 272 | 0.0 | 0.0 | 0.00 | 0.00 | 0.00 | 99 | 1011.3 |
| 20260902204804 | 73 | 9 | 0.0 | 0.0 | 0.00 | 0.00 | 0.00 | 99 | 1011.1 |
| 20260902203602 | 73 | 307 | 2.0 | 2.0 | 0.00 | 0.00 | 0.00 | 99 | 1011.2 |
| 20260902202403 | 73 | 220 | 2.0 | 2.0 | 0.00 | 0.00 | 0.00 | 99 | 1011.2 |
| 20260902201203 | 73 | 311 | 1.0 | 2.0 | 0.00 | 0.00 | 0.00 | 99 | 1011.0 |
| 20260902200004 | 73 | 342 | 0.0 | 0.0 | 0.00 | 0.00 | 0.00 | 99 | 1011.0 |
| 20260902194802 | 73 | 342 | 0.0 | 0.0 | 0.00 | 0.00 | 0.00 | 99 | 1011.1 |
| 20260902193602 | 73 | 346 | 1.0 | 2.0 | 0.00 | 0.00 | 0.00 | 99 | 1011.7 |
| 20260902192404 | 73 | 288 | 0.0 | 0.0 | 0.00 | 0.00 | 0.00 | 99 | 1011.8 |
| 20260902191203 | 73 | 250 | 0.0 | 0.0 | 0.00 | 0.00 | 0.00 | 99 | 1012.0 |
| 20260902190003 | 74 | 296 | 1.0 | 2.0 | 0.00 | 0.00 | 0.00 | 99 | 1011.8 |
| 20260902184803 | 73 | 246 | 0.0 | 0.0 | 0.00 | 0.00 | 0.00 | 99 | 1011.9 |
| 20260902183602 | 74 | 295 | 1.0 | 2.0 | 0.00 | 0.00 | 0.00 | 99 | 1012.0 |
| 20260902182402 | 74 | 253 | 1.0 | 2.0 | 0.00 | 0.00 | 0.00 | 99 | 1011.9 |
| 20260902181203 | 74 | 343 | 0.0 | 0.0 | 0.00 | 0.00 | 0.00 | 99 | 1012.0 |
| 20260902180004 | 74 | 343 | 0.0 | 0.0 | 0.00 | 0.00 | 0.00 | 99 | 1012.0 |
| 20260902174802 | 74 | 343 | 0.0 | 0.0 | 0.00 | 0.00 | 0.00 | 99 | 1012.2 |
| 20260902173602 | 74 | 263 | 0.0 | 0.0 | 0.00 | 0.00 | 0.00 | 99 | 1012.0 |
| 20260902172403 | 74 | 263 | 0.0 | 1.0 | 0.00 | 0.00 | 0.00 | 99 | 1012.4 |
| 20260902171201 | 74 | 262 | 0.0 | 0.0 | 0.00 | 0.00 | 0.00 | 99 | 1012.6 |
| 20260902170004 | 74 | 262 | 1.0 | 2.0 | 0.00 | 0.00 | 0.00 | 99 | 1013.0 |
| 20260902164803 | 74 | 267 | 0.0 | 0.0 | 0.00 | 0.00 | 0.00 | 99 | 1012.9 |
| 20260902163603 | 74 | 267 | 0.0 | 0.0 | 0.00 | 0.00 | 0.00 | 99 | 1012.8 |
| 20260902162403 | 74 | 267 | 0.0 | 0.0 | 0.00 | 0.00 | 0.00 | 99 | 1012.9 |
| 20260902161203 | 74 | 267 | 1.0 | 1.0 | 0.00 | 0.00 | 0.00 | 99 | 1012.8 |
| 20260902160005 | 74 | 296 | 1.0 | 2.0 | 0.00 | 0.00 | 0.00 | 99 | 1012.7 |
| 20260902154802 | 74 | 237 | 2.0 | 2.0 | 0.00 | 0.00 | 0.00 | 99 | 1012.5 |
| 20260902153602 | 74 | 201 | 2.0 | 3.0 | 0.00 | 0.00 | 0.00 | 99 | 1012.6 |
| 20260902152404 | 74 | 329 | 0.0 | 0.0 | 0.00 | 0.00 | 0.00 | 99 | 1012.8 |
| 20260902151203 | 75 | 111 | 1.0 | 1.0 | 0.00 | 0.00 | 0.00 | 99 | 1012.7 |
| 20260902150003 | 75 | 158 | 0.0 | 1.0 | 0.00 | 0.00 | 0.00 | 99 | 1013.0 |
| 20260902144802 | 75 | 217 | 1.0 | 2.0 | 0.00 | 0.00 | 0.00 | 99 | 1012.9 |
| 20260902143603 | 75 | 234 | 0.0 | 0.0 | 0.00 | 0.00 | 0.00 | 99 | 1013.3 |
| 20260902142405 | 75 | 224 | 0.0 | 1.0 | 0.00 | 0.00 | 0.00 | 99 | 1013.3 |
| 20260902141202 | 75 | 229 | 0.0 | 0.0 | 0.00 | 0.00 | 0.00 | 99 | 1013.5 |
| 20260902140004 | 75 | 246 | 0.0 | 0.0 | 0.00 | 0.00 | 0.00 | 99 | 1013.3 |
| 20260902134803 | 75 | 215 | 1.0 | 2.0 | 0.00 | 0.00 | 0.00 | 99 | 1013.5 |